Location: Unspecified
(48.5670°N, 0.0000°E)
Time: 03:59:38
(UTC+00:00)

Altair - Pass Details

Date: 25 August 2019
Orbit: 1501 x 1683 km, 47.2° (Epoch: 14 September)

Event Time Altitude Azimuth Distance (km) Brightness Sun altitude
Exits shadow 00:08:36 14° 115° (ESE) 3,518 9.2 -30.5°
Drops below altitude 10° 00:11:46 10° 95° (E) 3,826 9.5 -30.5°
Sets 00:16:41 0° 74° (ENE) 4,776 10.3 -30.4°
